Regional Weather Roundup
Issued by NWS

Home | Current Version | Previous Version | Text Only | Print | Product List | Glossary Off
Versions: 1 2 3 4 5 6 7 8 9 10 11 12 13 14 15 16 17 18 19 20 21 22 23 24 25 26 27 28 29 30 31 32 33 34 35 36 37 38 39 40 41 42 43 44 45 46 47 48 49 50

000
ASUS43 KOAX 010502
RWRNE

WEATHER ROUNDUP FOR NEBRASKA
NATIONAL WEATHER SERVICE OMAHA NE
1100 PM CST SAT JAN 31 2015

NOTES: SATELLITE DATA IS BEING USED TO AUGMENT CLOUD COVER ABOVE
       12000 FEET.
       "FAIR" INDICATES FEW OR NO CLOUDS BELOW 12,000 FEET WITH NO
       SIGNIFICANT WEATHER AND/OR OBSTRUCTIONS TO VISIBILITY.

  * THESE STATIONS DO NOT REPORT WEATHER SUCH AS RAIN...SNOW OR FOG.

NEZ001>004-019>022-054>056-010600-
NEBRASKA PANHANDLE

CITY           SKY/WX    TMP DP  RH WIND       PRES   REMARKS
SCOTTSBLUFF    CLOUDY    24  21  88 N7        30.00R WCI  16
ALLIANCE       CLOUDY    19  15  84 N15       29.98R WCI   5
CHADRON        LGT SNOW  19  17  92 NE10      30.07R FOG     WCI   7
SIDNEY         CLOUDY    23  20  88 N16       29.94R WCI  10
$$

NEZ057>060-069>072-079>082-010600-
SOUTHWEST NEBRASKA

CITY           SKY/WX    TMP DP  RH WIND       PRES   REMARKS
NORTH PLATTE   LGT SNOW  20  16  84 N17G26    29.94R FOG     WCI   5
IMPERIAL       LGT SNOW  24  21  88 N22G28    29.91S FOG     WCI   9
MCCOOK         LGT SNOW  27  24  89 N23G30    29.88R FOG     WCI  12
$$

NEZ005>010-023>029-035>040-094-010600-
NORTH CENTRAL NEBRASKA

CITY           SKY/WX    TMP DP  RH WIND       PRES   REMARKS
VALENTINE      LGT SNOW  15  11  83 N14       30.07R VSB 3/4 WCI   0
BROKEN BOW     LGT SNOW  22  18  85 N25G37    29.90R VSB 1   WCI   5
ORD            LGT SNOW  24  21  88 N17       29.90R FOG     WCI  11
$$

NEZ041-046>049-061>064-073>077-083>087-010600-
SOUTH CENTRAL NEBRASKA

CITY           SKY/WX    TMP DP  RH WIND       PRES   REMARKS
GRAND ISLAND   LGT SNOW  31  30  96 N12       29.84F FOG     WCI  22
HASTINGS       LGT SNOW  31  30  96 N9        29.81S VSB 1   WCI  23
KEARNEY *      CLOUDY    27  25  93 N22       29.84S WCI  12
$$

NEZ011>018-030>034-042>045-010600-
NORTHEAST NEBRASKA

CITY           SKY/WX    TMP DP  RH WIND       PRES   REMARKS
NORFOLK        LGT SNOW  29  27  92 NE13      29.90R VSB 1   WCI  19
TEKAMAH        LGT SNOW  33  32  96 NE6       29.91S VSB 1   WCI  28
$$

NEZ050>053-065>068-078-088>093-010600-
SOUTHEAST NEBRASKA

CITY           SKY/WX    TMP DP  RH WIND       PRES   REMARKS
LINCOLN        LGT SNOW  33  31  92 NE5       29.86F VSB 3/4 WCI  29
OMAHA EPPLEY   LGT SNOW  33  32  96 NE5       29.89F VSB 1   WCI  29
FALLS CITY     LGT SNOW  32  32 100 SE8       29.86F VSB 3/4 WCI  25
$$

NEZ044-045-051>053-067-010600-
OMAHA AREA

CITY           SKY/WX    TMP DP  RH WIND       PRES   REMARKS
OMAHA EPPLEY   LGT SNOW  33  32  96 NE5       29.89F VSB 1   WCI  29
OFFUTT AFB     LGT SNOW  32  32 100 NE6       29.87F FOG     WCI  26
$$


USA.gov is the U.S. government's official web portal to all federal, state and local government web resources and services.